This demonstration page uses our WeatherBlox Daily Observations layout. Learn more.

Left ArrowRight Arrow

Hourly Observations for August 17, 2021

Temp ( °F °C ) Dew Point ( °F °C ) Humidity (%) Winds ( mph kmh ) Pressure ( in mb ) Visibility ( mi km ) Precip ( " mm )
12:54 am 00:54 Clear 73 22.8 67 19.4 81 81 S 9 15 29.90 1012 10 16 0.00 0.00
1:54 am 01:54 Clear 72 22.2 67 19.4 84 84 S 7 11 29.89 1012 10 16 0.00 0.00
2:54 am 02:54 Clear 71 21.7 67 19.4 87 87 SSE 9 15 29.89 1012 10 16 0.00 0.00
3:54 am 03:54 Clear 69 20.6 67 19.4 93 93 SSE 7 11 29.90 1013 9 14 0.00 0.00
4:54 am 04:54 Clear 69 20.6 66 18.9 90 90 S 8 13 29.90 1013 8 13 0.00 0.00
5:54 am 05:54 Clear 67 19.4 65 18.3 93 93 S 6 9 29.90 1013 7 11 0.00 0.00
6:54 am 06:54 Sunny 68 20 65 18.3 90 90 S 5 7 29.91 1013 7 11 0.00 0.00
7:54 am 07:54 Sunny 70 21.1 66 18.9 87 87 S 5 7 29.92 1013 9 14 0.00 0.00
8:54 am 08:54 Sunny 74 23.3 66 18.9 76 76 SSW 8 13 29.91 1013 10 16 0.00 0.00
9:54 am 09:54 Sunny 79 26.1 67 19.4 67 67 S 9 15 29.91 1013 10 16 0.00 0.00
10:54 am 10:54 Sunny 83 28.3 68 20 61 61 SSW 6 9 29.91 1013 10 16 0.00 0.00
11:54 am 11:54 Sunny 86 30 69 20.6 57 57 S 14 22 29.89 1012 10 16 0.00 0.00
12:54 pm 12:54 Mostly Sunny 88 31.1 68 20 52 52 S 12 19 29.88 1012 10 16 0.00 0.00
1:54 pm 13:54 Partly Cloudy 90 32.2 66 18.9 45 45 S 12 19 29.87 1012 10 16 0.00 0.00
2:54 pm 14:54 Partly Cloudy 92 33.3 68 20 46 46 S 14 22 29.85 1011 9 14 0.00 0.00
3:54 pm 15:54 Mostly Sunny 92 33.3 66 18.9 43 43 S 16 26 29.83 1010 10 16 0.00 0.00
4:54 pm 16:54 Partly Cloudy 91 32.8 65 18.3 42 42 S 13 20 29.83 1010 10 16 0.00 0.00
5:54 pm 17:54 Sunny 90 32.2 64 17.8 42 42 S 12 19 29.83 1010 10 16 0.00 0.00
6:54 pm 18:54 Sunny 88 31.1 66 18.9 48 48 S 16 26 29.82 1010 10 16 0.00 0.00
7:54 pm 19:54 Sunny 85 29.4 66 18.9 53 53 SSE 15 24 29.83 1010 10 16 0.00 0.00
8:54 pm 20:54 Clear 83 28.3 66 18.9 57 57 SSE 14 22 29.84 1011 10 16 0.00 0.00
9:54 pm 21:54 Clear 81 27.2 67 19.4 62 62 SSE 16 26 29.86 1011 10 16 0.00 0.00
10:54 pm 22:54 Clear 79 26.1 67 19.4 67 67 SSE 13 20 29.87 1011 10 16 0.00 0.00
11:54 pm 23:54 Clear 77 25 67 19.4 71 71 S 14 22 29.89 1012 10 16 0.00 0.00

Powered by AerisWeather